Theta_e
352 354 355 356 357 357 356 357 356 357 358 358 359 359 359 360 361 361 361 360 358 359 359 359 358 361 354 355 358 358 355 354 345 347 354 357 361 361 361 364 361 362 356
354 355 355 358 358 357 357 358 357 355 357 360 357 358 359 359 361 360 358 358 358 357 357 358 356 355 360 361 355 359 356 358 351 350 355 354 359 363 364 364 358 354 357
353 354 355 355 357 357 358 359 360 360 360 359 360 359 359 358 358 358 359 359 359 358 359 357 357 359 358 356 357 354 353 353 355 352 352 356 357 360 360 362 362 364 359
346 347 350 351 352 353 356 357 358 361 361 360 360 360 359 357 358 357 357 359 360 358 360 359 359 358 359 361 359 360 359 355 356 354 352 353 355 360 359 355 355 356 356
345 345 346 350 350 350 350 352 352 355 357 361 360 360 359 357 355 356 357 357 359 358 359 361 360 357 348 350 355 365 360 359 356 349 348 350 350 350 352 355 354 354 357
342 341 342 347 346 348 347 348 348 350 354 358 358 359 359 356 336 335 345 355 357 357 356 358 361 350 351 340 338 339 350 359 357 349 347 349 355 356 355 354 353 350 345
333 339 339 336 345 348 348 348 346 349 352 353 354 356 357 356 327 329 334 354 357 359 360 360 359 356 353 361 344 336 337 335 340 361 357 358 357 361 363 358 358 355 351
326 331 331 329 330 334 338 340 343 346 347 348 348 352 345 333 322 323 329 358 358 359 360 361 360 361 359 356 359 359 360 361 360 356 358 362 366 366 365 362 359 358 357
321 326 328 329 329 329 330 329 331 335 337 344 346 344 341 328 317 319 338 352 354 355 356 357 356 355 323 323 350 353 356 358 348 334 335 334 335 334 341 355 351 350 348
321 322 323 324 327 326 327 328 332 335 335 334 333 329 320 322 312 312 330 338 338 342 344 344 327 331 321 319 337 338 341 351 352 356 358 351 341 351 331 351 354 351 351
319 319 320 322 321 322 321 323 325 325 327 326 325 324 322 315 313 309 311 329 328 331 335 340 340 319 316 315 317 336 333 332 335 344 349 351 355 358 359 367 361 359 353
317 317 317 318 318 319 321 319 320 320 321 322 323 321 320 320 308 308 308 310 314 326 326 329 330 313 309 311 319 321 317 321 335 334 338 344 345 348 350 349 355 357 357
314 313 313 314 315 316 316 315 315 315 316 315 316 317 317 316 313 306 307 308 312 320 321 317 311 311 312 320 317 316 316 336 336 338 338 341 346 348 349 350 354 360 361
310 309 310 310 311 312 312 312 311 311 313 310 309 308 310 310 307 307 308 311 311 317 317 322 320 317 315 319 325 329 337 339 340 341 339 340 342 342 342 346 345 345 348
307 306 306 307 307 308 308 308 309 306 305 307 306 307 307 303 298 298 298 302 305 309 305 321 322 322 323 324 326 329 333 335 333 332 332 332 331 329 330 337 339 341 343
305 304 303 304 304 304 305 303 298 299 297 295 295 299 303 296 295 294 293 294 295 299 313 315 316 318 319 321 322 326 330 328 327 326 325 324 323 324 324 325 327 329 333
304 303 301 302 302 302 302 302 301 299 297 295 294 294 293 292 293 292 292 293 298 302 309 311 312 313 315 317 318 317 319 320 322 323 323 323 323 323 323 323 324 323 323
303 299 301 301 300 300 301 301 301 301 300 300 295 295 293 292 292 292 293 297 303 303 303 304 305 308 310 312 315 316 316 316 315 316 319 318 316 317 319 320 321 322 322
302 300 300 300 300 299 300 300 300 300 299 299 299 297 296 293 292 293 294 301 300 300 301 302 303 303 304 305 307 309 311 312 314 314 314 315 317 315 314 316 317 311 313
301 298 299 299 299 299 299 299 299 298 298 298 297 296 297 298 298 298 299 298 298 298 298 299 300 302 303 303 304 303 305 307 308 309 310 311 313 314 313 311 312 314 316
301 300 298 300 299 299 298 298 297 297 297 297 296 294 290 296 296 296 296 296 296 297 297 297 297 298 300 301 302 303 303 303 306 305 304 305 306 305 306 306 306 307 310
301 300 300 299 299 298 298 298 297 297 297 296 297 296 291 297 296 296 295 296 296 296 296 295 294 295 297 298 299 298 299 301 303 303 302 302 302 303 303 303 303 303 304
300 300 299 299 300 296 297 297 297 297 297 297 297 297 296 296 295 295 295 295 294 293 294 293 292 293 294 294 295 297 298 297 296 297 298 299 299 300 301 300 299 299 300
300 300 300 299 299 299 298 297 297 293 297 298 298 297 297 296 295 293 293 293 293 293 293 292 293 294 294 295 295 295 295 295 296 296 295 296 296 297 299 297 296 296 296
300 300 300 300 299 299 298 298 298 299 299 299 298 298 298 298 297 296 295 292 292 292 292 292 293 293 292 293 293 293 292 288 291 290 292 292 292 293 294 294 295 295 295
300 300 300 301 300 299 299 299 298 299 299 299 299 299 298 297 296 296 294 292 291 291 291 291 291 291 291 292 292 290 287 286 288 286 288 289 289 290 291 292 292 293 294
Wind_Speed
10 8 7 8 7 6 5 5 5 6 5 5 6 6 6 6 6 6 6 6 7 5 5 5 5 4 4 4 3 3 4 4 6 5 4 5 6 8 9 8 7 8 7
10 11 11 9 8 8 7 6 7 6 6 5 5 6 5 6 7 8 8 7 8 7 6 7 7 5 6 5 5 5 5 4 6 7 5 5 5 7 8 9 7 8 8
6 6 6 6 8 8 8 7 7 7 7 6 6 6 6 7 8 7 7 8 8 7 7 7 6 5 6 6 6 6 5 5 5 6 7 5 6 6 8 7 7 7 8
7 7 7 7 6 5 7 7 6 6 6 7 7 6 6 5 6 7 8 8 8 8 8 8 7 7 8 6 6 5 5 6 6 7 7 7 7 6 6 7 8 7 8
8 5 5 7 6 5 5 5 4 4 4 5 7 7 6 6 6 7 7 8 8 8 8 8 9 9 8 8 6 6 6 6 6 7 9 8 7 7 8 7 8 9 8
5 3 1 5 6 6 5 4 2 3 2 1 3 5 6 5 2 7 7 7 8 8 8 8 9 7 10 12 12 13 10 8 10 9 9 9 10 8 8 8 9 9 10
8 8 5 4 3 5 5 5 3 3 3 3 3 3 5 6 7 3 4 7 8 8 8 8 8 8 7 10 9 12 12 14 14 9 10 10 11 9 8 10 10 10 11
9 11 8 5 6 6 7 7 5 3 3 3 3 4 9 7 8 5 2 4 6 7 8 8 8 9 8 8 10 11 11 11 9 8 10 12 10 10 8 9 10 10 10
9 10 9 6 8 8 8 5 4 4 4 4 7 8 9 11 14 12 5 4 3 4 4 5 5 5 10 8 7 10 12 12 9 12 13 13 12 10 9 9 10 11 12
10 9 9 9 8 8 6 6 7 6 6 8 12 10 12 12 17 18 9 7 7 6 6 7 6 5 4 5 5 5 8 10 11 12 11 9 10 10 12 11 10 11 11
7 7 8 8 9 8 8 6 7 8 9 10 11 9 10 12 15 17 17 9 6 4 4 4 4 8 7 4 2 3 4 6 9 10 9 8 8 8 8 6 9 10 12
6 8 8 8 7 7 8 7 8 7 8 8 6 6 6 7 12 12 14 12 11 6 5 5 6 10 11 10 4 5 7 8 5 6 7 6 6 6 7 9 10 11 12
7 7 7 7 8 8 8 7 6 7 6 5 4 4 4 5 7 12 17 15 13 6 6 8 11 10 10 8 2 7 6 4 4 6 6 5 6 7 9 9 10 10 12
8 7 7 7 7 7 6 6 6 5 5 5 5 5 6 7 10 11 10 8 8 6 7 5 6 6 5 5 6 4 5 5 5 5 6 8 7 6 6 6 6 8 11
7 6 6 6 6 6 8 6 6 9 8 5 4 4 5 6 8 10 8 9 8 7 9 5 7 7 7 7 7 7 6 5 5 6 7 8 8 8 8 8 9 9 8
7 5 4 4 4 4 5 7 12 11 12 12 12 11 6 9 12 12 12 13 11 9 3 6 6 7 7 7 7 6 6 6 7 8 8 7 7 8 8 8 8 9 10
6 6 5 4 4 4 4 4 5 7 11 11 10 12 11 10 11 12 13 13 6 10 5 6 6 6 8 9 8 8 8 6 7 7 8 8 9 9 8 9 9 8 8
7 5 5 4 4 4 4 4 4 3 3 3 8 6 6 8 9 10 13 9 6 7 7 8 8 8 8 9 9 8 8 7 7 7 8 7 7 9 10 10 9 10 10
7 5 5 5 4 4 4 4 4 3 4 4 4 2 5 5 4 3 8 8 7 7 7 7 8 8 8 8 8 7 9 9 9 9 9 9 9 8 8 10 11 11 10
7 9 6 5 5 4 4 4 4 4 4 4 5 6 7 5 7 8 8 8 8 8 8 9 9 9 9 9 10 10 11 10 9 9 10 10 10 10 10 11 11 12 12
7 8 7 5 5 4 4 4 4 4 4 4 4 7 8 6 6 7 7 7 7 7 8 8 9 10 10 11 11 11 12 12 10 7 7 8 9 10 10 11 11 13 13
7 7 6 5 5 5 5 4 4 4 4 4 3 4 4 4 5 6 6 6 7 7 7 8 8 10 11 11 12 12 12 13 13 11 10 10 11 11 11 11 11 12 13
7 7 6 5 4 6 4 4 4 3 3 3 3 3 4 5 5 6 7 6 6 7 7 7 8 8 8 9 10 11 13 11 11 11 11 12 13 13 14 15 15 16 14
9 9 8 6 5 5 4 4 4 2 2 2 3 4 4 4 4 5 6 7 7 8 8 9 9 13 11 10 9 9 10 11 11 12 18 15 15 15 15 14 15 18 16
9 9 8 7 7 5 5 4 3 2 2 2 3 4 5 5 6 6 6 7 8 8 9 10 8 12 14 17 16 17 16 15 18 20 14 17 17 19 17 15 16 15 18
11 11 9 7 6 5 5 4 3 3 1 1 2 4 5 5 6 6 7 7 7 8 10 9 11 15 16 13 15 17 16 18 19 19 15 12 13 13 13 16 21 15 18
Wind_Direction
198 200 213 206 194 209 192 184 181 210 208 206 211 213 219 216 200 199 206 208 214 218 228 237 243 241 256 251 254 255 255 255 279 303 293 314 304 320 327 330 312 307 323
189 196 202 200 195 193 203 189 183 190 204 203 207 233 231 220 208 211 212 212 220 223 228 227 237 229 237 248 255 264 272 279 285 283 316 294 294 317 312 317 327 328 329
149 172 188 186 202 198 192 197 195 197 195 201 208 206 207 209 215 225 234 230 222 227 230 231 237 227 243 252 254 262 256 263 249 272 295 291 299 303 315 311 316 322 307
121 131 134 139 140 163 150 158 174 185 187 195 206 208 203 204 217 224 223 233 232 232 227 234 241 237 251 255 247 245 252 254 247 260 277 283 280 309 301 302 319 328 328
167 159 169 170 146 150 153 138 150 159 164 199 204 202 207 214 206 216 238 239 245 249 249 238 246 243 241 249 263 250 260 251 264 277 281 286 282 301 312 317 302 317 308
159 126 29 208 173 169 159 139 168 167 151 132 205 203 197 226 93 224 240 246 242 251 260 258 262 238 241 235 232 244 252 255 260 266 279 287 287 288 296 300 312 316 315
115 110 84 29 112 142 143 143 158 135 135 112 83 97 106 78 25 36 231 246 250 247 250 255 260 263 244 268 240 233 246 236 238 263 268 274 288 288 294 297 304 304 296
94 102 91 84 80 85 96 96 94 81 92 101 78 88 76 46 25 19 8 235 238 249 261 272 275 281 293 323 300 286 278 271 251 241 247 266 265 276 280 281 294 290 278
88 89 88 92 93 75 72 65 64 105 93 133 78 86 83 41 2 24 53 35 336 315 306 295 301 319 31 21 306 291 287 282 270 227 245 263 260 262 268 289 276 282 289
81 77 76 72 75 80 75 69 60 71 86 84 73 60 55 51 16 26 26 70 52 27 15 59 53 47 353 39 44 352 315 312 331 314 301 268 246 253 223 233 268 274 284
84 84 77 83 90 88 88 83 90 93 86 84 88 80 70 43 39 22 34 56 32 39 36 353 348 346 328 331 332 325 303 315 311 304 297 292 288 281 283 238 250 266 276
82 75 68 61 56 67 80 81 73 78 79 79 90 95 75 57 44 26 33 37 11 33 12 330 321 329 316 306 313 289 288 307 293 299 305 301 301 296 286 287 291 285 279
82 79 75 64 62 59 60 53 60 57 67 70 57 56 52 35 13 19 22 12 20 5 359 323 289 292 289 285 358 296 278 257 276 288 295 287 288 287 278 274 277 280 272
88 78 70 64 64 61 63 58 54 45 57 47 41 37 15 20 14 9 1 353 350 331 344 328 315 280 264 278 311 315 338 334 328 322 329 322 308 306 314 309 309 303 303
102 92 87 78 69 83 69 49 84 54 34 56 45 43 26 27 6 344 345 343 336 321 309 322 336 345 339 342 342 334 319 330 339 329 321 322 322 321 317 322 309 303 289
123 117 91 101 101 98 109 102 60 68 63 56 52 41 87 40 347 344 338 332 331 318 288 355 343 345 340 336 331 326 344 347 342 328 325 322 318 319 324 319 317 312 306
122 117 112 108 96 98 97 104 126 106 82 58 48 61 45 5 349 345 335 324 313 326 2 355 347 357 345 344 346 341 328 332 321 320 320 317 321 317 310 319 315 313 314
113 81 120 113 109 103 95 95 94 109 142 120 97 57 41 1 347 341 332 324 21 26 13 358 349 340 341 337 328 321 318 319 318 314 307 312 314 315 316 313 311 312 315
147 137 125 113 96 91 98 94 90 92 68 57 50 112 48 347 307 326 343 26 14 8 4 351 341 338 334 323 311 316 321 313 314 302 297 300 303 296 297 304 307 306 302
140 131 129 124 123 104 99 94 86 73 65 53 44 27 8 355 23 20 21 16 9 2 353 343 338 331 324 324 321 314 306 309 302 298 302 302 300 298 300 301 298 299 300
154 148 137 139 130 121 109 94 84 72 62 54 51 58 349 343 15 15 11 9 0 350 344 338 333 325 322 317 317 314 310 305 307 312 314 313 312 307 304 295 292 290 289
171 160 162 143 139 134 120 111 100 83 64 51 48 92 249 13 14 9 5 355 353 340 335 330 321 319 319 317 312 306 305 307 299 285 286 289 290 287 285 283 283 282 282
180 171 159 150 132 135 145 115 104 85 71 55 30 15 13 17 360 355 348 341 336 324 319 312 305 299 294 295 302 305 307 303 299 303 294 286 285 284 284 283 280 278 275
187 184 177 168 167 158 149 136 118 104 26 47 16 1 354 353 346 342 329 332 328 324 318 314 311 307 308 302 295 286 280 283 295 295 296 289 283 284 281 280 277 279 281
193 192 191 183 176 171 155 161 144 117 57 17 355 347 344 338 338 342 337 332 322 322 316 312 303 311 311 313 310 309 312 312 297 291 285 276 273 273 270 270 272 269 266
201 196 198 190 187 181 183 176 179 182 186 327 328 346 345 339 322 336 327 320 312 310 308 307 310 314 312 308 307 303 296 289 285 280 278 273 267 263 260 261 265 265 266